CZ-2C DEB

Satellite information

Favourite Embed

Satellite Type and Status

DEBRISIN ORBIT

Key statistics

Satellite CZ-2C DEB at a glance.

Uptime

5054

Days in orbit

Revolutions

≈ 14.4

Per day

Orbit

SSO

Sun Synchronous Orbit

Inclination

98.0

Latest

Satellite identification and parameters

Extended collection of information and parameters for CZ-2C DEB.

Object identification

Identified? True

Debris? True

Object name: CZ-2C DEB

International designator: 2011-030C

Object number (NORAD): 37732

Object ID (CCSDS): 37732

Country: PEOPLES REPUBLIC OF CHINA (PRC)

Current information (Y/N): Y

RCS size: SMALL

Orbital parameters

Period: 100.269 minutes

Inclination: 97.9921 deg

SMA: 7149.428 km

Apoapsis: 871.687 km

Periapsis: 670.899 km

RAAN: 194.0596 deg

Eccentricy: 0.0140422

Argument of periapsis: 288.8513 deg

Mean anomaly: 185.4621 deg

Mean motion: 14.36136772 rev/day

Mean motion (dot): 0.00002161 rev/day2

B* drag term: 0.00067618 1/REarth

Two-line elements (TLE)

Creation date: May 7, 2025, 3:14 a.m.

Reference frame: TEME

Reference center: EARTH

Epoch: May 6, 2025, 6:23 p.m. UTC

TLE line 0: 0 CZ-2C DEB

TLE line 1: 1 37732U 11030C 25126.76626295 .00002161 00000-0 67618-3 0 9997

TLE line 2: 2 37732 97.9921 194.0596 0140422 288.8513 185.4621 14.36136772720021

Live tracking on map

Real-time ground track for satellite CZ-2C DEB.

In-orbit conjunctions

A list of the most updated potential collisions computed for object CZ-2C DEB.

Target Orbit TCA Probability of collision Miss distance Type
CZ-6A DEB SSO 2025-04-30 11:49:12 0.0004612187 96.0 (m) DEBRIS
COSMOS 1503 LEO 2024-10-08 09:39:05 0.0003935326 46.0 (m) PAYLOAD
CZ-2C DEB SSO 2024-08-21 18:06:10 0.0001290928 110.0 (m) DEBRIS

Associated space launch

CZ-2C DEB was lifted into orbit during the mission ‘Long March 2C | Shijian 10-03’, on board a Long March 2 space rocket.

The launch took place on July 6, 2011, 4:28 a.m. from Launch Area 4 (SLS-2 / 603).

For more information about the launch, click the button.

Launch to space Long March 2C | Shijian 10-03
Long March 2C | Shijian 10-03

Agency: N/A

Status: Launch Successful

Launch date: July 6, 2011, 4:28 a.m. UTC

Rocket: Long March 2

Launch pad: Launch Area 4 (SLS-2 / 603)

Location: Jiuquan Satellite Launch Center, People's Republic of China

...

Latest news about this satellite

There are no fresh news available about this satellite. Check back as we update our databases every day.


Newsletter sign-up

Weekly statistics, charts and insights to help you stay on top of the space industry.